Location: The Saddle
(36.8333°N, 80.3417°W)
Time: 04:48:09
(UTC-04:00)

Vanguard 3 - Pass Details

Date: 26 February 2024
Orbit: 510 x 3234 km, 33.3° (Epoch: 24 April)

Event Time Altitude Azimuth Distance (km) Brightness Sun altitude
Rises 21:12:29 0° 249° (WSW) 6,761 12.4 -36.4°
Reaches altitude 10° 21:16:42 10° 247° (WSW) 5,936 12.0 -37.2°
Maximum altitude 21:36:21 74° 167° (SSE) 3,242 9.8 -40.9°
Enters shadow 21:38:30 70° 129° (SE) 3,243 9.7 -41.2°
